Location: �chenoz-la-M�line
(47.6009°N, 6.1354°E)
Time: 11:37:33
(UTC+00:00)

Cosmos 1328 - Pass Details

Date: 27 January 2021
Orbit: 528 x 555 km, 82.5° (Epoch: 02 March)

Event Time Altitude Azimuth Distance (km) Brightness Sun altitude
Exits shadow 04:46:59 58° 28° (NNE) 621 4.1 -23.7°
Maximum altitude 04:47:32 69° 79° (E) 571 3.9 -23.6°
Drops below altitude 10° 04:51:24 10° 164° (SSE) 1,770 6.6 -23.0°
Sets 04:53:33 0° 166° (SSE) 2,654 7.5 -22.6°
